Time,TemperatureF,DewpointF,PressureIn,WindDirection,WindDirectionDegrees,WindSpeedMPH,WindSpeedGustMPH,Humidity,HourlyPrecipIn,Conditions,Clouds,dailyrainin,SoftwareType,DateUTC
2013-02-12 00:01:00,13.0,7.0,30.14,WNW,285,0.0,2.0,77,0.00,,,0.00,,2013-02-12 07:01:00,
2013-02-12 00:11:00,13.0,7.0,30.14,WNW,285,0.0,2.0,77,0.00,,,0.00,,2013-02-12 07:11:00,
2013-02-12 00:21:00,13.0,7.0,30.14,WSW,242,0.0,3.0,78,0.00,,,0.00,,2013-02-12 07:21:00,
2013-02-12 00:31:00,14.0,8.0,30.14,WNW,290,1.0,3.0,77,0.00,,,0.00,,2013-02-12 07:31:00,
2013-02-12 00:41:00,14.0,8.0,30.14,WNW,290,1.0,3.0,77,0.00,,,0.00,,2013-02-12 07:41:00,
2013-02-12 00:51:00,14.0,8.0,30.14,West,274,3.0,5.0,78,0.00,,,0.00,,2013-02-12 07:51:00,
2013-02-12 01:01:00,14.0,8.0,30.13,WSW,246,0.0,4.0,76,0.00,,,0.00,,2013-02-12 08:01:00,
2013-02-12 01:11:00,14.0,8.0,30.13,WSW,246,0.0,4.0,76,0.00,,,0.00,,2013-02-12 08:11:00,
2013-02-12 01:21:00,15.0,8.0,30.13,WNW,293,2.0,8.0,74,0.00,,,0.00,,2013-02-12 08:21:00,
2013-02-12 01:31:00,15.0,8.0,30.12,WNW,286,1.0,5.0,74,0.00,,,0.00,,2013-02-12 08:31:00,
2013-02-12 01:41:00,15.0,8.0,30.12,WNW,286,1.0,5.0,74,0.00,,,0.00,,2013-02-12 08:41:00,
2013-02-12 01:52:00,15.0,9.0,30.12,West,273,3.0,6.0,75,0.00,,,0.00,,2013-02-12 08:52:00,
2013-02-12 02:01:00,15.0,8.0,30.12,West,267,3.0,10.0,74,0.00,,,0.00,,2013-02-12 09:01:00,
2013-02-12 02:11:00,15.0,8.0,30.12,West,267,3.0,10.0,74,0.00,,,0.00,,2013-02-12 09:11:00,
2013-02-12 02:21:00,14.0,8.0,30.12,West,267,1.0,4.0,75,0.00,,,0.00,,2013-02-12 09:21:00,
2013-02-12 02:31:00,13.0,7.0,30.12,West,267,3.0,5.0,77,0.00,,,0.00,,2013-02-12 09:31:00,
2013-02-12 02:41:00,13.0,7.0,30.12,West,267,3.0,5.0,77,0.00,,,0.00,,2013-02-12 09:41:00,
2013-02-12 02:51:00,13.0,8.0,30.11,West,267,2.0,5.0,80,0.00,,,0.00,,2013-02-12 09:51:00,
2013-02-12 03:01:00,13.0,8.0,30.11,West,267,0.0,5.0,79,0.00,,,0.00,,2013-02-12 10:01:00,
2013-02-12 03:11:00,12.0,7.0,30.10,West,267,1.0,4.0,80,0.00,,,0.00,,2013-02-12 10:11:00,
2013-02-12 03:21:00,12.0,7.0,30.10,West,267,1.0,4.0,80,0.00,,,0.00,,2013-02-12 10:21:00,
2013-02-12 03:31:00,12.0,7.0,30.10,West,267,1.0,6.0,80,0.00,,,0.00,,2013-02-12 10:31:00,
2013-02-12 03:43:00,12.0,7.0,30.10,West,267,1.0,6.0,80,0.00,,,0.00,,2013-02-12 10:43:00,
2013-02-12 03:51:00,13.0,7.0,30.10,SSE,165,0.0,5.0,78,0.00,,,0.00,,2013-02-12 10:51:00,
2013-02-12 04:01:00,14.0,8.0,30.09,NE,53,3.0,5.0,76,0.00,,,0.00,,2013-02-12 11:01:00,
2013-02-12 04:11:00,14.0,8.0,30.09,NE,53,3.0,5.0,76,0.00,,,0.00,,2013-02-12 11:11:00,
2013-02-12 04:21:00,14.0,8.0,30.09,SSW,192,1.0,6.0,75,0.00,,,0.00,,2013-02-12 11:21:00,
2013-02-12 04:31:00,13.0,7.0,30.10,SW,226,0.0,4.0,75,0.00,,,0.00,,2013-02-12 11:31:00,
2013-02-12 04:41:00,13.0,7.0,30.10,SW,226,0.0,4.0,75,0.00,,,0.00,,2013-02-12 11:41:00,
2013-02-12 04:52:00,13.0,7.0,30.10,South,175,1.0,3.0,76,0.00,,,0.00,,2013-02-12 11:52:00,
2013-02-12 05:01:00,14.0,7.0,30.11,South,187,1.0,3.0,74,0.00,,,0.00,,2013-02-12 12:01:00,
2013-02-12 05:11:00,14.0,7.0,30.11,South,187,1.0,3.0,74,0.00,,,0.00,,2013-02-12 12:11:00,
2013-02-12 05:21:00,14.0,7.0,30.12,East,84,4.0,6.0,73,0.00,,,0.00,,2013-02-12 12:21:00,
2013-02-12 05:32:00,14.0,7.0,30.12,East,84,4.0,6.0,73,0.00,,,0.00,,2013-02-12 12:32:00,
2013-02-12 05:41:00,14.0,7.0,30.12,East,84,4.0,6.0,73,0.00,,,0.00,,2013-02-12 12:41:00,
2013-02-12 05:52:00,14.0,8.0,30.13,ENE,76,2.0,6.0,75,0.00,,,0.00,,2013-02-12 12:52:00,
2013-02-12 06:01:00,14.0,8.0,30.14,East,95,2.0,6.0,75,0.00,,,0.00,,2013-02-12 13:01:00,
2013-02-12 06:11:00,15.0,8.0,30.14,NW,316,2.0,6.0,72,0.00,,,0.00,,2013-02-12 13:11:00,
2013-02-12 06:22:00,15.0,8.0,30.14,NW,316,2.0,6.0,72,0.00,,,0.00,,2013-02-12 13:22:00,
2013-02-12 06:31:00,15.0,8.0,30.14,North,355,1.0,5.0,72,0.00,,,0.00,,2013-02-12 13:31:00,
2013-02-12 06:41:00,15.0,8.0,30.14,North,355,1.0,5.0,72,0.00,,,0.00,,2013-02-12 13:41:00,
2013-02-12 06:51:00,15.0,8.0,30.14,North,355,1.0,5.0,72,0.00,,,0.00,,2013-02-12 13:51:00,
2013-02-12 07:01:00,14.0,7.0,30.14,NNW,346,6.0,10.0,74,0.00,,,0.00,,2013-02-12 14:01:00,
2013-02-12 07:11:00,14.0,7.0,30.14,NNW,346,6.0,10.0,74,0.00,,,0.00,,2013-02-12 14:11:00,
2013-02-12 07:21:00,16.0,8.0,30.16,NNW,333,5.0,9.0,69,0.00,,,0.00,,2013-02-12 14:21:00,
2013-02-12 07:31:00,16.0,8.0,30.16,NNE,19,5.0,12.0,70,0.00,,,0.00,,2013-02-12 14:31:00,
2013-02-12 07:41:00,16.0,8.0,30.16,NNE,19,5.0,12.0,70,0.00,,,0.00,,2013-02-12 14:41:00,
2013-02-12 07:52:00,14.0,7.0,30.16,SE,132,5.0,9.0,72,0.00,,,0.00,,2013-02-12 14:52:00,
2013-02-12 08:01:00,14.0,7.0,30.17,ENE,69,6.0,18.0,73,0.00,,,0.00,,2013-02-12 15:01:00,
2013-02-12 08:11:00,16.0,9.0,30.17,ENE,77,2.0,8.0,72,0.00,,,0.00,,2013-02-12 15:11:00,
2013-02-12 08:21:00,16.0,9.0,30.17,ENE,77,2.0,8.0,72,0.00,,,0.00,,2013-02-12 15:21:00,
2013-02-12 08:32:00,16.0,9.0,30.17,ENE,77,2.0,8.0,72,0.00,,,0.00,,2013-02-12 15:32:00,
2013-02-12 08:41:00,16.0,9.0,30.17,ENE,77,2.0,8.0,72,0.00,,,0.00,,2013-02-12 15:41:00,
2013-02-12 08:52:00,16.0,9.0,30.18,East,86,7.0,13.0,72,0.00,,,0.00,,2013-02-12 15:52:00,
2013-02-12 09:01:00,16.0,9.0,30.18,ENE,63,0.0,10.0,72,0.00,,,0.00,,2013-02-12 16:01:00,
2013-02-12 09:11:00,16.0,9.0,30.18,ENE,63,0.0,10.0,72,0.00,,,0.00,,2013-02-12 16:11:00,
2013-02-12 09:22:00,16.0,8.0,30.18,East,82,2.0,9.0,71,0.00,,,0.00,,2013-02-12 16:22:00,
2013-02-12 09:31:00,16.0,8.0,30.19,ENE,78,3.0,6.0,71,0.00,,,0.00,,2013-02-12 16:31:00,
2013-02-12 09:41:00,16.0,8.0,30.19,ENE,78,3.0,6.0,71,0.00,,,0.00,,2013-02-12 16:41:00,
2013-02-12 09:51:00,16.0,8.0,30.19,NE,50,1.0,4.0,71,0.00,,,0.00,,2013-02-12 16:51:00,
2013-02-12 10:01:00,17.0,8.0,30.19,ENE,69,2.0,8.0,68,0.00,,,0.00,,2013-02-12 17:01:00,
2013-02-12 10:11:00,17.0,8.0,30.19,ENE,69,2.0,8.0,68,0.00,,,0.00,,2013-02-12 17:11:00,
2013-02-12 10:21:00,19.0,10.0,30.19,ESE,110,1.0,7.0,66,0.00,,,0.00,,2013-02-12 17:21:00,
2013-02-12 10:31:00,20.0,9.0,30.19,ENE,63,1.0,5.0,63,0.00,,,0.00,,2013-02-12 17:31:00,
2013-02-12 10:41:00,20.0,9.0,30.19,ENE,63,1.0,5.0,63,0.00,,,0.00,,2013-02-12 17:41:00,
2013-02-12 10:52:00,21.0,10.0,30.19,SE,134,1.0,7.0,61,0.00,,,0.00,,2013-02-12 17:52:00,
2013-02-12 11:01:00,23.0,10.0,30.18,East,88,1.0,5.0,57,0.00,,,0.00,,2013-02-12 18:01:00,
2013-02-12 11:11:00,24.0,10.0,30.18,NE,51,3.0,7.0,54,0.00,,,0.00,,2013-02-12 18:11:00,
2013-02-12 11:22:00,24.0,10.0,30.18,NE,51,3.0,7.0,54,0.00,,,0.00,,2013-02-12 18:22:00,
2013-02-12 11:31:00,26.0,11.0,30.17,NE,52,2.0,8.0,52,0.00,,,0.00,,2013-02-12 18:31:00,
2013-02-12 11:41:00,26.0,11.0,30.17,NE,52,2.0,8.0,52,0.00,,,0.00,,2013-02-12 18:41:00,
2013-02-12 11:51:00,28.0,12.0,30.17,ENE,65,4.0,7.0,50,0.00,,,0.00,,2013-02-12 18:51:00,
2013-02-12 12:02:00,28.0,10.0,30.16,NNE,18,5.0,7.0,47,0.00,,,0.00,,2013-02-12 19:02:00,
2013-02-12 12:11:00,28.0,10.0,30.16,NNE,18,5.0,7.0,47,0.00,,,0.00,,2013-02-12 19:11:00,
2013-02-12 12:21:00,29.0,10.0,30.16,NE,42,6.0,10.0,45,0.00,,,0.00,,2013-02-12 19:21:00,
2013-02-12 12:31:00,30.0,11.0,30.15,NE,55,7.0,11.0,45,0.00,,,0.00,,2013-02-12 19:31:00,
2013-02-12 12:41:00,30.0,11.0,30.15,NE,55,7.0,11.0,45,0.00,,,0.00,,2013-02-12 19:41:00,
2013-02-12 12:51:00,30.0,11.0,30.14,NE,51,6.0,12.0,45,0.00,,,0.00,,2013-02-12 19:51:00,
2013-02-12 13:01:00,30.0,11.0,30.14,NE,52,6.0,9.0,45,0.00,,,0.00,,2013-02-12 20:01:00,
2013-02-12 13:11:00,30.0,11.0,30.14,NE,52,6.0,9.0,45,0.00,,,0.00,,2013-02-12 20:11:00,
2013-02-12 13:21:00,30.0,11.0,30.14,East,79,5.0,11.0,45,0.00,,,0.00,,2013-02-12 20:21:00,
2013-02-12 13:31:00,31.0,13.0,30.13,ENE,62,6.0,12.0,46,0.00,,,0.00,,2013-02-12 20:31:00,
2013-02-12 13:41:00,31.0,13.0,30.13,ENE,62,6.0,12.0,46,0.00,,,0.00,,2013-02-12 20:41:00,
2013-02-12 13:51:00,31.0,13.0,30.12,ENE,78,7.0,10.0,46,0.00,,,0.00,,2013-02-12 20:51:00,
2013-02-12 14:01:00,31.0,13.0,30.12,NNE,26,6.0,11.0,47,0.00,,,0.00,,2013-02-12 21:01:00,
2013-02-12 14:11:00,31.0,13.0,30.12,NNE,26,6.0,11.0,47,0.00,,,0.00,,2013-02-12 21:11:00,
2013-02-12 14:21:00,31.0,13.0,30.12,ENE,60,5.0,9.0,47,0.00,,,0.00,,2013-02-12 21:21:00,
2013-02-12 14:31:00,31.0,13.0,30.11,NNE,32,5.0,8.0,47,0.00,,,0.00,,2013-02-12 21:31:00,
2013-02-12 14:41:00,32.0,14.0,30.11,NE,52,6.0,9.0,46,0.00,,,0.00,,2013-02-12 21:41:00,
2013-02-12 14:51:00,32.0,14.0,30.11,NE,52,6.0,9.0,46,0.00,,,0.00,,2013-02-12 21:51:00,
2013-02-12 15:01:00,32.0,14.0,30.10,NE,53,6.0,13.0,46,0.00,,,0.00,,2013-02-12 22:01:00,
2013-02-12 15:11:00,32.0,14.0,30.10,NE,53,6.0,13.0,46,0.00,,,0.00,,2013-02-12 22:11:00,
2013-02-12 15:21:00,32.0,14.0,30.11,NNE,28,6.0,10.0,47,0.00,,,0.00,,2013-02-12 22:21:00,
2013-02-12 15:31:00,32.0,14.0,30.10,ENE,61,4.0,7.0,46,0.00,,,0.00,,2013-02-12 22:31:00,
2013-02-12 15:41:00,32.0,14.0,30.10,ENE,61,4.0,7.0,46,0.00,,,0.00,,2013-02-12 22:41:00,
2013-02-12 15:51:00,33.0,15.0,30.10,NNE,15,3.0,7.0,46,0.00,,,0.00,,2013-02-12 22:51:00,
2013-02-12 16:01:00,32.0,15.0,30.09,ENE,61,5.0,9.0,48,0.00,,,0.00,,2013-02-12 23:01:00,
2013-02-12 16:11:00,31.0,15.0,30.09,NE,49,4.0,8.0,51,0.00,,,0.00,,2013-02-12 23:11:00,
2013-02-12 16:21:00,31.0,15.0,30.09,NE,49,4.0,8.0,51,0.00,,,0.00,,2013-02-12 23:21:00,
2013-02-12 16:31:00,31.0,15.0,30.09,NE,49,4.0,8.0,51,0.00,,,0.00,,2013-02-12 23:31:00,
2013-02-12 16:41:00,31.0,15.0,30.09,NE,49,4.0,8.0,51,0.00,,,0.00,,2013-02-12 23:41:00,
2013-02-12 16:52:00,31.0,15.0,30.07,NNE,16,5.0,11.0,51,0.00,,,0.00,,2013-02-12 23:52:00,
2013-02-12 17:02:00,30.0,15.0,30.07,NE,34,5.0,8.0,54,0.00,,,0.00,,2013-02-13 00:02:00,
2013-02-12 17:11:00,30.0,15.0,30.07,NE,34,5.0,8.0,54,0.00,,,0.00,,2013-02-13 00:11:00,
2013-02-12 17:21:00,30.0,15.0,30.07,NE,34,5.0,8.0,54,0.00,,,0.00,,2013-02-13 00:21:00,
2013-02-12 17:32:00,28.0,14.0,30.07,North,355,4.0,6.0,56,0.00,,,0.00,,2013-02-13 00:32:00,
2013-02-12 17:42:00,28.0,14.0,30.07,North,355,4.0,6.0,56,0.00,,,0.00,,2013-02-13 00:42:00,
2013-02-12 17:52:00,27.0,14.0,30.07,North,355,3.0,5.0,57,0.00,,,0.00,,2013-02-13 00:52:00,
2013-02-12 18:01:00,27.0,14.0,30.07,SE,139,2.0,3.0,58,0.00,,,0.00,,2013-02-13 01:01:00,
2013-02-12 18:11:00,27.0,14.0,30.07,SE,139,2.0,3.0,58,0.00,,,0.00,,2013-02-13 01:11:00,
2013-02-12 18:21:00,25.0,14.0,30.07,ESE,119,3.0,5.0,63,0.00,,,0.00,,2013-02-13 01:21:00,
2013-02-12 18:31:00,25.0,15.0,30.08,SE,127,3.0,4.0,64,0.00,,,0.00,,2013-02-13 01:31:00,
2013-02-12 18:42:00,25.0,15.0,30.08,SE,127,3.0,4.0,64,0.00,,,0.00,,2013-02-13 01:42:00,
2013-02-12 18:52:00,24.0,14.0,30.09,SSW,197,2.0,4.0,64,0.00,,,0.00,,2013-02-13 01:52:00,
2013-02-12 19:01:00,24.0,14.0,30.09,WNW,286,2.0,6.0,64,0.00,,,0.00,,2013-02-13 02:01:00,
2013-02-12 19:11:00,24.0,14.0,30.09,WNW,286,2.0,6.0,64,0.00,,,0.00,,2013-02-13 02:11:00,
2013-02-12 19:21:00,24.0,14.0,30.10,ENE,67,1.0,6.0,64,0.00,,,0.00,,2013-02-13 02:21:00,
2013-02-12 19:31:00,24.0,13.0,30.09,SSE,147,2.0,5.0,62,0.00,,,0.00,,2013-02-13 02:31:00,
2013-02-12 19:41:00,24.0,13.0,30.09,SSE,147,2.0,5.0,62,0.00,,,0.00,,2013-02-13 02:41:00,
2013-02-12 19:51:00,23.0,13.0,30.10,East,90,0.0,8.0,64,0.00,,,0.00,,2013-02-13 02:51:00,
2013-02-12 20:01:00,22.0,12.0,30.09,SSW,200,3.0,5.0,65,0.00,,,0.00,,2013-02-13 03:01:00,
2013-02-12 20:11:00,22.0,12.0,30.09,ESE,108,0.0,4.0,65,0.00,,,0.00,,2013-02-13 03:11:00,
2013-02-12 20:21:00,22.0,12.0,30.09,ESE,108,0.0,4.0,65,0.00,,,0.00,,2013-02-13 03:21:00,
2013-02-12 20:32:00,21.0,12.0,30.09,WSW,252,1.0,5.0,67,0.00,,,0.00,,2013-02-13 03:32:00,
2013-02-12 20:41:00,21.0,12.0,30.09,WSW,252,1.0,5.0,67,0.00,,,0.00,,2013-02-13 03:41:00,
2013-02-12 20:51:00,20.0,11.0,30.08,WNW,298,5.0,7.0,69,0.00,,,0.00,,2013-02-13 03:51:00,
2013-02-12 21:01:00,21.0,12.0,30.07,East,99,4.0,7.0,69,0.00,,,0.00,,2013-02-13 04:01:00,
2013-02-12 21:21:00,21.0,12.0,30.06,South,169,0.0,3.0,67,0.00,,,0.00,,2013-02-13 04:21:00,
2013-02-12 21:31:00,20.0,11.0,30.06,WSW,242,1.0,3.0,69,0.00,,,0.00,,2013-02-13 04:31:00,
2013-02-12 21:41:00,20.0,11.0,30.06,WSW,242,1.0,3.0,69,0.00,,,0.00,,2013-02-13 04:41:00,
2013-02-12 21:51:00,20.0,11.0,30.05,ESE,110,0.0,4.0,69,0.00,,,0.00,,2013-02-13 04:51:00,
2013-02-12 22:01:00,19.0,11.0,30.04,NW,318,2.0,5.0,70,0.00,,,0.00,,2013-02-13 05:01:00,
2013-02-12 22:11:00,20.0,12.0,30.02,WNW,296,1.0,6.0,72,0.00,,,0.00,,2013-02-13 05:11:00,
2013-02-12 22:22:00,20.0,12.0,30.02,WNW,296,1.0,6.0,72,0.00,,,0.00,,2013-02-13 05:22:00,
2013-02-12 22:31:00,21.0,12.0,30.02,South,169,0.0,4.0,69,0.00,,,0.00,,2013-02-13 05:31:00,
2013-02-12 22:41:00,21.0,12.0,30.02,South,169,0.0,4.0,69,0.00,,,0.00,,2013-02-13 05:41:00,
2013-02-12 22:52:00,20.0,12.0,30.03,East,98,4.0,7.0,71,0.00,,,0.00,,2013-02-13 05:52:00,
2013-02-12 23:01:00,20.0,12.0,30.03,SE,128,6.0,7.0,72,0.00,,,0.00,,2013-02-13 06:01:00,
2013-02-12 23:11:00,20.0,12.0,30.03,South,178,1.0,4.0,71,0.00,,,0.00,,2013-02-13 06:11:00,
2013-02-12 23:21:00,20.0,12.0,30.03,South,178,1.0,4.0,71,0.00,,,0.00,,2013-02-13 06:21:00,
2013-02-12 23:31:00,20.0,12.0,30.03,North,11,1.0,9.0,71,0.00,,,0.00,,2013-02-13 06:31:00,
2013-02-12 23:41:00,20.0,13.0,30.03,SSE,162,2.0,4.0,73,0.00,,,0.00,,2013-02-13 06:41:00,
2013-02-12 23:52:00,20.0,13.0,30.03,SSE,162,2.0,4.0,73,0.00,,,0.00,,2013-02-13 06:52:00,